Regional Weather Roundup
Issued by NWS Upton, NY

Home | Current Version | Previous Version | Text Only | Print | Product List | Glossary On
Versions: 1 2 3 4 5 6 7 8 9 10 11 12 13 14 15 16 17 18 19 20 21 22 23 24 25 26 27 28 29 30 31 32 33 34 35 36 37 38 39 40 41 42 43 44 45 46 47 48 49 50
000
ASUS41 KOKX 222105
RWROKX
REGIONAL WEATHER ROUNDUP
NATIONAL WEATHER SERVICE NEW YORK NY
500 PM EDT TUE JUL 22 2014

NOTE: "FAIR" INDICATES FEW OR NO CLOUDS BELOW 12,000 FEET WITH NO
SIGNIFICANT WEATHER AND/OR OBSTRUCTIONS TO VISIBILITY.

NYZ071-072-176-178-NJZ106-104-222200-
NEW YORK CITY METRO AREA


CITY           SKY/WX    TMP DP  RH WIND       PRES   REMARKS
CENTRAL PARK   MOSUNNY   83  67  58 S7        30.09F
LAGUARDIA APRT MOSUNNY   84  66  54 S16       30.06F
KENNEDY INTL   MOSUNNY   80  67  64 S21       30.09F
NEWARK/LIBERTY MOSUNNY   89  66  46 W14       30.06F HX  91
BRNX BOT. GARD   N/A     82  66  57 SE16      30.09S
TETERBORO      SUNNY     88  67  49 S10       30.05F HX  91
$$

NYZ177-179-078>081-222200-
LONG ISLAND NEW YORK

CITY           SKY/WX    TMP DP  RH WIND       PRES   REMARKS
FARMINGDALE    SUNNY     80  67  64 SW13      30.09F
ISLIP          SUNNY     80  66  62 SW12      30.08F
SHIRLEY        SUNNY     78  65  63 S14       30.10F
WESTHAMPTON    SUNNY     77  66  68 SW12G20   30.11F
MONTAUK POINT    N/A     77  67  71 S8        30.10F
$$

NYZ052-065-067-222200-
HUDSON VALLEY

CITY           SKY/WX    TMP DP  RH WIND       PRES   REMARKS
WHITE PLAINS   MOSUNNY   82  67  60 S9        30.07F
NEWBURGH       MOSUNNY   84  70  61 SW14      30.07F
MONTGOMERY     SUNNY     86  69  56 SW13      30.05F HX  90
POUGHKEEPSIE   SUNNY     88  68  51 VRB5      30.03F HX  91
ALBANY         PTSUNNY   85  67  54 S7        30.02F
$$

NJZ001-105-106-008-010-013-015-019>022-104-222200-
NEW JERSEY

CITY           SKY/WX    TMP DP  RH WIND       PRES   REMARKS
NEWARK/LIBERTY MOSUNNY   89  66  46 W14       30.06F HX  91
TETERBORO      SUNNY     88  67  49 S10       30.05F HX  91
CALDWELL       SUNNY     86  66  51 SW8       30.07F
MORRISTOWN     PTSUNNY   88  68  51 W8        30.07F HX  91
SOMERVILLE     MOSUNNY   86  67  52 VRB5      30.05F
LINDEN         FAIR      88  67  48 W7        30.08F HX  90
SUSSEX         SUNNY     87  69  54 VRB7      30.07F HX  91
ANDOVER          N/A     83  69  62 SW7       30.09F
TRENTON        MOSUNNY   86  67  52 SW9       30.07F
MILLVILLE      SUNNY     81  63  54 S8        30.12F
ATLANTIC CITY  SUNNY     80  61  52 S12       30.12F
WRIGHTSTOWN    SUNNY     87  68  54 SW14      30.06F HX  90
TOMS RIVER     MOSUNNY   84  66  54 S10       30.10F
BELMAR         SUNNY     82  66  57 S12G18    30.09F
$$

PAZ047>061-062-071-222200-
EASTERN PENNSYLVANIA

CITY           SKY/WX    TMP DP  RH WIND       PRES   REMARKS
PHILADELPHIA   MOSUNNY   86  64  47 S15       30.09F
ALLENTOWN      MOSUNNY   86  69  56 SW5       30.08F HX  90
SCRANTON       PTSUNNY   87  66  49 SW8       30.08F
$$

CTZ002-004>006-009-010-012-RIZ004-006-007-MAZ004-011-015-222200-
SOUTHERN NEW ENGLAND
 IN CT

CITY           SKY/WX    TMP DP  RH WIND       PRES   REMARKS
BRADLEY INTL   MOSUNNY   89  65  44 SW12      30.03F HX  91
HARTFORD       SUNNY     88  65  46 SW6       30.03F HX  90
DANBURY        MOSUNNY   84  66  54 SW8       30.08F
WTRBRY/OXFORD  MOSUNNY   82  68  61 SW7       30.11F
BRIDGEPORT     SUNNY     85  70  60 S14       30.06F
MERIDEN        MOSUNNY   87  67  51 S12       30.05F HX  90
NEW HAVEN      MOSUNNY   84  69  60 S10       30.06F
CHESTER        FAIR      82  66  57 S10       30.09S
GROTON         SUNNY     76  68  76 S8        30.07F
WILLIMANTIC    MOSUNNY   86  67  52 SW10      30.06S

 IN RI

CITY           SKY/WX    TMP DP  RH WIND       PRES   REMARKS
PROVIDENCE     MOSUNNY   85  65  51 S15       30.06S
BLOCK ISLAND   SUNNY     75  64  69 SW17      30.10S
WESTERLY       SUNNY     80  66  62 SW13      30.09F

 IN MA

CITY           SKY/WX    TMP DP  RH WIND       PRES   REMARKS
BOSTON         CLOUDY    81  68  64 E9        30.02F
WORCESTER      MOSUNNY   82  63  52 SW8       30.08F
WESTFIELD      MOSUNNY   90  65  43 SW13      30.03F HX  92
PROVINCETOWN   SUNNY     79  68  69 S14       30.06F
NANTUCKET      SUNNY     71  65  81 S10       30.10F
$$

ANZ330-335-338-340-345-350-353-355-222200-
COASTAL MARINE OBSERVATIONS


STATION/POSITION TIME  SKY/WX   TEMP    WIND        PRES    VSBY  WAVE
                                AIR SEA DIR/SP/G                  HT/PER
                 (UTC)          (F)     (DEG/KT/KT) (MB)    (MI)  (FT/S)
NY HARB ENTRANCE NOT AVBL
4S FIRE IS       NOT AVBL
23SW MTP         2100            73 71              1018.6          2/ 7
HUDSON CANYON    2100            74 74  220/ 12/ 12 1020.2          2/ 7
EXECUTION ROCKS  2100            80 72  200/ 16/ 19   N/A
WESTERN LI SOUND 2100            81     190/ 12/ 16   N/A           1
CENTRAL LI SOUND 2000            78 74  200/ 10/ 12   N/A           0
EASTERN LI SOUND 2000            74 69  200/  4/  8   N/A
ROBBINS REEF     2100            78     160/ 15/ 16   N/A
$$


>>>>>>>>>>>>>>>>>>>>>>>>>>>> KEY <<<<<<<<<<<<<<<<<<<<<<<<<<<
>                                                          <
>     SKY/WX - SKY CONDITION/PRESENT WEATHER               <
>     TMP    - TEMPERATURE IN FAHRENHEIT                   <
>     DP     - DEWPOINT IN FAHRENHEIT                      <
>     RH     - RELATIVE HUMIDITY IN PERCENT                <
>     WIND   - DIRECTION AND SPEED IN MPH                  <
>     PRES   - MEAN SEA LEVEL PRESSURE IN INCHES OF HG     <
>     WCI    - WIND CHILL INDEX                            <
>     VSB    - VISIBILITY IN MILES                         <
>     HX     - HEAT INDEX                                  <
>     TC     - TEMPERATURE IN CELSIUS                      <
>     VRB    - VARIABLE WIND DIRECTION                     <
>                                                          <
>>>>>>>>>>>>>>>>>>>>>>>>>>>> KEY <<<<<<<<<<<<<<<<<<<<<<<<<<<




USA.gov is the U.S. government's official web portal to all federal, state and local government web resources and services.